Location: *
(51.0333°S, 178.4667°E)
Time: 06:51:02
(UTC+00:00)

Cosmos 1607 - Pass Details

Date: 15 November 2019
Orbit: 928 x 974 km, 65.0° (Epoch: 06 December)

Event Time Altitude Azimuth Distance (km) Brightness Sun altitude
Rises 09:48:33 0° 325° (NW) 3,669 6.8 -15.5°
Reaches altitude 10° 09:51:06 10° 325° (NW) 2,730 6.1 -15.7°
Maximum altitude 09:57:32 83° 51° (NE) 998 4.0 -16.2°
Drops below altitude 10° 10:04:00 10° 138° (SE) 2,748 6.6 -16.7°
Sets 10:06:35 0° 138° (SE) 3,695 7.3 -16.8°
